Printer-friendly version
Follow the MPC on Twitter Follow the MPC on Facebook The MPC blog
Minor Planet Center

MPEC 2004-V64 : 2004 VA64

The following Minor Planet Electronic Circular may be linked-to from your own Web pages, but must not otherwise be redistributed electronically.

A form allowing access to any MPEC is at the bottom of this page.


Read MPEC 2004-V63 Read MPEC 2004-V65


M.P.E.C. 2004-V64                                Issued 2004 Nov. 13, 12:17 UT

     The Minor Planet Electronic Circulars contain information on unusual
         minor planets and routine data on comets.  They are published
   on behalf of Commission 20 of the International Astronomical Union by the
          Minor Planet Center, Smithsonian Astrophysical Observatory,
                          Cambridge, MA 02138, U.S.A.

                  Supported in part by the Brinson Foundation
             Prepared using the Tamkin Foundation Computer Network

                              MPC@CFA.HARVARD.EDU
          URL http://cfa-www.harvard.edu/iau/mpc.html  ISSN 1523-6714

                                   2004 VA64

Observations:
     K04V64A* C2004 11 10.15371 22 19 19.00 +16 48 33.1          18.7   EV064704
     K04V64A  C2004 11 10.16594 22 19 22.31 +16 48 08.3          18.7   EV064704
     K04V64A  C2004 11 10.17832 22 19 25.32 +16 47 46.9          18.7   EV064704
     K04V64A  C2004 11 10.19049 22 19 28.41 +16 47 23.9          18.9   EV064704
     K04V64A IC2004 11 11.18028 22 23 36.14 +16 18 00.3          17.0 R EV064711
     K04V64A  C2004 11 11.19212 22 23 38.95 +16 17 39.7          18.2 R EV064711
     K04V64A  C2004 11 11.19575 22 23 39.92 +16 17 32.2          19.1 R EV064854
     K04V64A  C2004 11 11.19766 22 23 40.33 +16 17 28.8          18.9 R EV064854
     K04V64A  C2004 11 11.19958 22 23 40.84 +16 17 25.6          19.2 R EV064854
     K04V64A  C2004 11 11.20149 22 23 41.31 +16 17 22.5          18.9 R EV064854
     K04V64A  C2004 11 11.20397 22 23 41.83 +16 17 17.0          18.6   EV064704
     K04V64A  C2004 11 11.21602 22 23 44.74 +16 16 56.9          18.9   EV064704
     K04V64A  C2004 11 11.22807 22 23 47.66 +16 16 37.2          19.2   EV064704
     K04V64A  C2004 11 12.06746 22 27 08.92 +15 52 54.7          18.6   EV064704
     K04V64A  C2004 11 12.07721 22 27 11.10 +15 52 39.0          18.7   EV064704
     K04V64A  C2004 11 12.07945 22 27 11.62 +15 52 35.3          18.7   EV064704
     K04V64A  C2004 11 12.09007 22 27 14.16 +15 52 16.8          19.0   EV064704
     K04V64A  C2004 11 12.09145 22 27 14.42 +15 52 15.3          18.9   EV064704
     K04V64A  C2004 11 12.09510 22 27 15.44 +15 52 08.9          18.1 R EV064703
     K04V64A  C2004 11 12.10255 22 27 16.94 +15 51 58.0          18.6   EV064704
     K04V64A  C2004 11 12.10346 22 27 17.18 +15 51 55.3          18.8   EV064704
     K04V64A  C2004 11 12.10462 22 27 17.57 +15 51 53.1          18.1 R EV064703
     K04V64A  C2004 11 12.11286 22 27 19.51 +15 51 39.8          18.1 R EV064703
     K04V64A  C2004 11 12.11495 22 27 19.70 +15 51 37.0          18.8   EV064704
     K04V64A  C2004 11 12.11547 22 27 19.91 +15 51 35.7          18.7   EV064704
     K04V64A  C2004 11 12.12104 22 27 21.38 +15 51 25.9          18.1 R EV064703
     K04V64A  C2004 11 12.12213 22 27 21.42 +15 51 25.2          18.2 R EV064711
     K04V64A  C2004 11 12.12808 22 27 22.85 +15 51 15.3          18.4 R EV064711
     K04V64A IC2004 11 12.13403 22 27 24.14 +15 51 06.5                 EV064711
     K04V64A 2C2004 11 12.19765 22 27 38.74 +15 49 19.6          17.8 R EV064H06
     K04V64A 2C2004 11 12.20592 22 27 40.68 +15 49 05.1          18.0 R EV064H06
     K04V64A  C2004 11 12.75997 22 29 48.81 +15 34 09.4          18.8 R EV064J87
     K04V64A  C2004 11 12.76116 22 29 49.00 +15 34 07.1          18.6 R EV064J87
     K04V64A  C2004 11 12.76235 22 29 49.27 +15 34 05.0          18.8 R EV064J87
     K04V64A  C2004 11 12.81597 22 30 01.07 +15 32 38.9          18.7 R EV064587
     K04V64A  C2004 11 12.81918 22 30 01.83 +15 32 34.6          18.6 R EV064587
     K04V64A  C2004 11 12.82238 22 30 02.54 +15 32 28.8                 EV064587
     K04V64A  C2004 11 12.88639 22 30 16.92 +15 30 46.1          18.7 R EV064J95
     K04V64A  C2004 11 12.89348 22 30 18.51 +15 30 34.8          18.7 R EV064J95
     K04V64A  C2004 11 12.90079 22 30 20.15 +15 30 23.3          18.6 R EV064J95
     K04V64A  C2004 11 13.12735 22 31 11.40 +15 24 31.3          19.6 V EV064G72
     K04V64A  C2004 11 13.12909 22 31 11.70 +15 24 30.2          18.9 V EV064G72
     K04V64A  C2004 11 13.13080 22 31 12.15 +15 24 26.3          18.4 V EV064G72
     K04V64A  C2004 11 13.13252 22 31 12.48 +15 24 23.3          18.5 V EV064G72
     K04V64A  C2004 11 13.13425 22 31 12.98 +15 24 15.9          20.1 V EV064G72
     K04V64A  C2004 11 13.13597 22 31 13.17 +15 24 18.6          18.9 V EV064G72
     K04V64A  C2004 11 13.13774 22 31 13.54 +15 24 15.5          19.5 V EV064G72
     K04V64A  C2004 11 13.13947 22 31 13.91 +15 24 12.4          18.8 V EV064G72
     K04V64A  C2004 11 13.14120 22 31 14.35 +15 24 10.8          18.6 V EV064G72
     K04V64A  C2004 11 13.14293 22 31 14.71 +15 24 07.9          18.8 V EV064G72
     K04V64A  C2004 11 13.14465 22 31 15.14 +15 24 03.9          19.2 V EV064G72
     K04V64A  C2004 11 13.14639 22 31 15.53 +15 24 01.8          18.9 V EV064G72
     K04V64A  C2004 11 13.15204 22 31 16.75 +15 23 54.1          18.8 V EV064G72
     K04V64A  C2004 11 13.15380 22 31 17.04 +15 23 50.1          18.3 V EV064G72
     K04V64A  C2004 11 13.15552 22 31 17.48 +15 23 47.0          17.9 V EV064G72

Observer details:
587 Sormano.  Observer F. Manca.  0.5-m f/6 reflector + CCD.
703 Catalina Sky Survey.  Observer E. J. Christensen.  Measurers E. C. Beshore,
    C. M. Casey, E. J. Christensen, G. J. Garradd, R. E. Hill, S. M. Larson,
    R. H. McNaught.  0.68-m Schmidt + CCD.
704 Lincoln Laboratory ETS, New Mexico.  Observers M. Blythe, F. Shelly,
    M. Bezpalko, R. Huber, L. Manguso, D. Torres, R. Kracke, M. McCleary,
    H. Stange, A. Milner.  Measurers J. Stuart, R. Sayer, J. Evans, J. Kommers.
    1.0-m f/2.15 reflector + CCD.
711 McDonald Observatory.  Observer J. G. Ries.  0.76-m reflector + CCD
    + prime-focus corrector.
854 Sabino Canyon Observatory, Tucson.  Observer J. E. McGaha.  0.36-m f/10.0
    Schmidt-Cassegrain + CCD.
G72 University Hills.  Observer J. Foster.  0.33-m reflector + CCD.
H06 New Mexico Skies Observatory.  Observer R. Hutsebaut.  0.25-m reflector
    + CCD.
J87 La Canada.  Observer J. Lacruz.  0.30-m f/10 Schmidt-Cassegrain + CCD
    + f/3.3 focal reducer.
J95 Great Shefford.  Observer P. Birtwhistle.  0.30-m f/6.3 Schmidt-Cassegrain
    + CCD.

Orbital elements:
2004 VA64
Epoch 2004 Nov. 11.0 TT = JDT 2453320.5                 MPC
M  18.41680              (2000.0)            P               Q
n   0.28212992     Peri.   18.68393     -0.45471206     +0.81692238
a   2.3023426      Node   226.17582     -0.86692414     -0.49728332
e   0.8850325      Incl.   29.45625     -0.20415550     +0.29214229
P   3.49           H   17.1           G   0.15
From 53 observations 2004 Nov. 10-13.

Ephemeris:
2004 VA64                a,e,i = 2.30, 0.89, 29                  q = 0.2647
Date    TT    R. A. (2000) Decl.     Delta      r     Elong.  Phase     V
2004 11 11    22 22.87   +16 23.3    0.690    1.409   112.8    40.4    18.6
2004 11 21    22 56.34   +12 38.8    0.901    1.551   110.4    36.6    19.3
2004 12 01    23 20.45   +10 31.3    1.128    1.686   105.6    34.3    19.9
2004 12 11    23 39.92   +09 22.6    1.364    1.813    99.8    32.4    20.4
2004 12 21    23 56.89   +08 51.7    1.607    1.933    93.4    30.5    20.9
2004 12 31    00 12.40   +08 46.0    1.853    2.048    86.8    28.6    21.3
2005 01 10    00 27.02   +08 57.6    2.098    2.157    80.0    26.7    21.6
2005 01 20    00 41.08   +09 21.5    2.341    2.262    73.2    24.6    21.9

Timothy B. Spahr             (C) Copyright 2004 MPC           M.P.E.C. 2004-V64

Read MPEC 2004-V63 Read MPEC 2004-V65


MPEC number:

Enter an MPEC number in one of the following forms:

  • 1997-B01 (the full form)
  • J97B01 (the packed version of the full form)
  • B01 (the abbreviated form)

Valid HTML 4.01!